Location: Carrer del Canonge
(41.4901°N, 2.2931°E)
Time: 14:11:57
(UTC+00:00)

Cosmos 1680 Rocket - Pass Details

Date: 18 September 2020
Orbit: 760 x 781 km, 74.1° (Epoch: 28 October)

Event Time Altitude Azimuth Distance (km) Brightness Sun altitude
Rises 18:54:14 0° 334° (NNW) 3,232 7.3 -11.9°
Reaches altitude 10° 18:56:40 10° 330° (NNW) 2,304 6.6 -12.4°
Maximum altitude 19:01:41 49° 256° (WSW) 986 4.5 -13.3°
Drops below altitude 10° 19:06:42 10° 183° (S) 2,301 5.9 -14.2°
Sets 19:09:08 0° 178° (S) 3,227 6.6 -14.6°
